Weather History for Monroe, WI

Change the Weather History Date:

Saturday, March 1, 2014

  Actual Average Record
Temperature  
Mean Temperature 13 °F -  
Max Temperature 21 °F 0 °F 57 °F (2004)
Min Temperature 5 °F - 5 °F (1999)
Degree Days  
Heating Degree Days 52    
Moisture  
Dew Point 8 °F    
Average Humidity 82    
Maximum Humidity 100    
Minimum Humidity 58    
Precipitation  
Precipitation 0.01 in - - ()
Sea Level Pressure  
Sea Level Pressure 30.20 in    
Wind  
Wind Speed 9 mph (NNW)    
Max Wind Speed 18 mph    
Max Gust Speed 24 mph    
Visibility 7 miles    
Events Snow    
Averages and records for this station are not official NWS values.
T = Trace of Precipitation, MM = Missing Value Source: NWS Daily Summary

Daily Weather History Graph

Daily Weather History Graph

Search for Another Location

Airport:

Trip Planner

Search our weather history database for the weather conditions in past years. The results will help you decide how hot, cold, wet, or windy it might be!

Date:

Astronomy

Mar. 01, 2014 Rise Set
Actual Time 6:33 AM CST 5:48 PM CST
Civil Twilight 6:05 AM CST 6:16 PM CST
Nautical Twilight 5:33 AM CST 6:49 PM CST
Astronomical Twilight 5:00 AM CST 7:21 PM CST
Moon 6:26 AM CST (3/1) 6:37 PM CST (3/1)
Length of Visible Light 12h 10m
Length of Day
11h 14m
New Moon, 0% of the Moon is Illuminated
Mar 1
New Moon
Mar 8
First Quarter
Mar 16
Full
Mar 23
Last Quarter
Mar 30
New

Hourly Weather History & Observations

Time (CST) Temp. Windchill Dew Point Humidity Pressure Visibility Wind Dir Wind Speed Gust Speed Precip Events Conditions
12:15 AM 21.7 °F 15.5 °F 21.7 °F 100% 29.99 in 2.5 mi NNW 4.6 mph - N/A Snow Light Snow
12:35 AM 21.6 °F 15.3 °F 21.6 °F 100% 30.00 in 1.8 mi NNW 4.6 mph - 0.01 in Snow Light Snow
12:55 AM 21.0 °F 11.4 °F 21.0 °F 100% 30.00 in 3.0 mi NNW 8.1 mph - 0.01 in Snow Light Snow
1:15 AM 20.5 °F 11.7 °F 20.5 °F 100% 30.01 in 5.0 mi North 6.9 mph - N/A Snow Light Snow
1:35 AM 19.8 °F 8.3 °F 19.8 °F 100% 30.01 in 7.0 mi North 10.4 mph - N/A Snow Light Snow
1:55 AM 19.4 °F 9.5 °F 19.4 °F 100% 30.01 in 7.0 mi North 8.1 mph - N/A Snow Light Snow
2:15 AM 18.9 °F 8.0 °F 18.9 °F 100% 30.00 in 5.0 mi North 9.2 mph - N/A Snow Light Snow
2:35 AM 18.9 °F 8.8 °F 18.9 °F 100% 30.01 in 10.0 mi North 8.1 mph - N/A   Overcast
2:55 AM 18.5 °F 6.8 °F 18.5 °F 100% 30.02 in 10.0 mi North 10.4 mph - N/A   Overcast
3:15 AM 18.3 °F 5.9 °F 18.1 °F 99% 30.04 in 10.0 mi North 11.5 mph - N/A   Overcast
3:35 AM 18.0 °F 7.7 °F 18.0 °F 100% 30.05 in 10.0 mi North 8.1 mph - N/A   Overcast
3:55 AM 17.4 °F 4.7 °F 16.7 °F 97% 30.04 in 10.0 mi North 11.5 mph 17.3 mph N/A   Overcast
4:15 AM 17.4 °F 8.0 °F 16.2 °F 95% 30.05 in 10.0 mi North 6.9 mph - N/A   Overcast
4:35 AM 17.1 °F 3.0 °F 15.6 °F 94% 30.07 in 10.0 mi North 13.8 mph - N/A   Overcast
4:55 AM 15.6 °F 2.5 °F 14.5 °F 95% 30.09 in 10.0 mi North 11.5 mph 17.3 mph N/A   Overcast
5:15 AM 15.1 °F 1.1 °F 13.1 °F 92% 30.10 in 10.0 mi North 12.7 mph 18.4 mph N/A   Overcast
5:35 AM 14.7 °F -0.5 °F 12.7 °F 92% 30.10 in 10.0 mi North 15.0 mph 19.6 mph N/A   Overcast
5:55 AM 13.8 °F -3.2 °F 11.5 °F 90% 30.10 in 10.0 mi North 18.4 mph 24.2 mph N/A   Overcast
6:15 AM 13.5 °F -1.5 °F 10.2 °F 87% 30.12 in 10.0 mi North 13.8 mph 18.4 mph N/A   Overcast
6:35 AM 13.5 °F 0.5 °F 8.4 °F 80% 30.15 in 10.0 mi NNW 10.4 mph 16.1 mph N/A   Overcast
6:55 AM 13.1 °F 0.1 °F 5.5 °F 72% 30.15 in 10.0 mi North 10.4 mph 17.3 mph N/A   Overcast
7:15 AM 13.1 °F 1.8 °F 5.0 °F 70% 30.16 in 10.0 mi North 8.1 mph - N/A   Overcast
7:35 AM 13.1 °F -0.7 °F 4.8 °F 70% 30.17 in 10.0 mi North 11.5 mph 17.3 mph N/A   Overcast
7:55 AM 13.3 °F 1.1 °F 5.0 °F 70% 30.19 in 10.0 mi North 9.2 mph - N/A   Overcast
8:15 AM 13.3 °F -0.5 °F 5.0 °F 70% 30.20 in 10.0 mi North 11.5 mph 18.4 mph N/A   Overcast
8:35 AM 13.5 °F -0.2 °F 5.0 °F 69% 30.19 in 10.0 mi North 11.5 mph - N/A   Overcast
8:55 AM 13.5 °F 1.3 °F 5.0 °F 69% 30.18 in 10.0 mi North 9.2 mph - N/A   Mostly Cloudy
9:15 AM 13.5 °F -1.5 °F 3.7 °F 65% 30.21 in 10.0 mi North 13.8 mph 17.3 mph N/A   Mostly Cloudy
9:35 AM 13.8 °F 1.8 °F 3.6 °F 64% 30.22 in 10.0 mi North 9.2 mph - N/A   Overcast
9:55 AM 14.7 °F 3.8 °F 3.2 °F 60% 30.23 in 10.0 mi North 8.1 mph - N/A   Overcast
10:15 AM 14.0 °F 0.5 °F 1.8 °F 58% 30.23 in 10.0 mi North 11.5 mph 16.1 mph N/A   Mostly Cloudy
10:35 AM 14.0 °F 1.2 °F 2.5 °F 60% 30.22 in 10.0 mi North 10.4 mph 16.1 mph N/A   Mostly Cloudy
10:55 AM 14.0 °F 0.5 °F 2.1 °F 59% 30.23 in 10.0 mi NNW 11.5 mph - N/A   Overcast
11:15 AM 14.7 °F 4.8 °F 2.5 °F 58% 30.23 in 10.0 mi North 6.9 mph - N/A   Mostly Cloudy
11:35 AM 14.0 °F 2.0 °F 2.1 °F 59% 30.23 in 10.0 mi NNW 9.2 mph - N/A   Mostly Cloudy
11:55 AM 13.8 °F 3.7 °F 2.5 °F 61% 30.24 in 10.0 mi NNW 6.9 mph - N/A   Overcast
12:15 PM 13.8 °F 3.7 °F 2.7 °F 61% 30.23 in 4.0 mi North 6.9 mph - N/A Snow Light Snow
12:35 PM 13.8 °F 4.9 °F 4.5 °F 66% 30.23 in 3.0 mi North 5.8 mph - N/A Snow Light Snow
12:55 PM 13.1 °F 0.9 °F 5.7 °F 72% 30.24 in 1.8 mi North 9.2 mph - N/A Snow Light Snow
1:15 PM 12.9 °F 5.2 °F 7.2 °F 78% 30.24 in 1.0 mi NW 4.6 mph - N/A Snow Light Snow
1:35 PM 12.4 °F 0.0 °F 6.8 °F 78% 30.25 in 0.8 mi NW 9.2 mph - N/A Snow Light Snow
1:55 PM 12.2 °F -1.0 °F 6.6 °F 78% 30.26 in 0.5 mi NNW 10.4 mph - N/A Snow Light Snow
2:15 PM 11.3 °F 0.7 °F 5.9 °F 79% 30.24 in 1.0 mi NNW 6.9 mph - N/A Snow Light Snow
2:35 PM 11.3 °F -2.9 °F 5.4 °F 77% 30.24 in 1.2 mi NNW 11.5 mph 17.3 mph N/A Snow Light Snow
2:55 PM 11.3 °F -2.2 °F 5.5 °F 78% 30.25 in 4.0 mi NNW 10.4 mph - N/A Snow Light Snow
3:15 PM 11.1 °F -0.6 °F 5.0 °F 76% 30.26 in 2.0 mi North 8.1 mph - N/A Snow Light Snow
3:35 PM 11.3 °F -0.4 °F 5.4 °F 77% 30.26 in 3.0 mi NNW 8.1 mph - N/A Snow Light Snow
3:55 PM 10.4 °F -1.5 °F 4.6 °F 78% 30.24 in 1.5 mi NNW 8.1 mph - N/A Snow Light Snow
4:15 PM 10.2 °F -1.7 °F 5.2 °F 80% 30.26 in 1.8 mi North 8.1 mph - N/A Snow Light Snow
4:35 PM 10.2 °F 0.6 °F 5.2 °F 80% 30.27 in 5.0 mi NNW 5.8 mph - N/A Snow Light Snow
4:55 PM 9.5 °F -3.5 °F 4.6 °F 81% 30.27 in 7.0 mi NNW 9.2 mph - N/A Snow Light Snow
5:15 PM 9.1 °F -1.9 °F 7.0 °F 91% 30.27 in 2.5 mi NNW 6.9 mph - N/A Snow Light Snow
5:35 PM 9.0 °F -2.2 °F 8.2 °F 97% 30.26 in 2.0 mi North 6.9 mph - N/A Snow Light Snow
5:55 PM 8.6 °F -1.3 °F 8.6 °F 100% 30.28 in 1.2 mi NNW 5.8 mph - N/A Snow Light Snow
6:15 PM 8.6 °F 2.0 °F 8.6 °F 100% 30.29 in 2.5 mi NNW 3.5 mph - N/A Snow Light Snow
6:35 PM 8.6 °F -2.6 °F 8.6 °F 100% 30.30 in 1.8 mi North 6.9 mph - N/A Snow Light Snow
6:55 PM 8.2 °F -4.1 °F 8.2 °F 100% 30.29 in 3.0 mi North 8.1 mph - N/A Snow Light Snow
7:15 PM 8.2 °F -0.3 °F 8.2 °F 100% 30.27 in 2.0 mi North 4.6 mph - N/A Snow Light Snow
7:35 PM 8.2 °F -4.1 °F 8.2 °F 100% 30.31 in 5.0 mi NNW 8.1 mph - N/A Snow Light Snow
7:55 PM 8.2 °F -3.0 °F 8.2 °F 100% 30.30 in 10.0 mi NNW 6.9 mph - N/A   Overcast
8:15 PM 8.2 °F -4.1 °F 7.3 °F 96% 30.31 in 10.0 mi NNW 8.1 mph - N/A   Overcast
8:35 PM 8.4 °F -3.9 °F 3.4 °F 80% 30.32 in 10.0 mi NNW 8.1 mph - N/A   Overcast
8:55 PM 8.4 °F -4.9 °F 2.7 °F 77% 30.32 in 10.0 mi NNW 9.2 mph 16.1 mph N/A   Overcast
9:15 PM 8.2 °F -5.1 °F 0.9 °F 72% 30.32 in 10.0 mi North 9.2 mph - N/A   Overcast
9:35 PM 7.9 °F -3.5 °F 0.5 °F 72% 30.32 in 10.0 mi North 6.9 mph - N/A   Overcast
9:55 PM 7.7 °F -4.8 °F 1.6 °F 76% 30.32 in 10.0 mi North 8.1 mph - N/A   Mostly Cloudy
10:15 PM 7.7 °F -6.6 °F 1.2 °F 75% 30.30 in 10.0 mi North 10.4 mph - N/A   Overcast
10:35 PM 7.5 °F -6.0 °F 0.3 °F 72% 30.31 in 10.0 mi North 9.2 mph - N/A   Overcast
10:55 PM 6.8 °F -6.9 °F 1.4 °F 79% 30.32 in 7.0 mi NNW 9.2 mph - N/A Snow Light Snow
11:15 PM 5.9 °F -7.0 °F -0.4 °F 75% 30.33 in 7.0 mi NNW 8.1 mph - N/A Snow Light Snow
11:35 PM 5.9 °F -8.0 °F -1.8 °F 70% 30.32 in 10.0 mi NNW 9.2 mph - N/A   Overcast
11:55 PM 5.5 °F -9.3 °F -3.3 °F 67% 30.32 in 10.0 mi NNW 10.4 mph - N/A   Overcast